weather.gov     
National Weather Service

Regional Weather Roundup
NWS Homepage
This page is being discontinued on March 12, 2014.
The same data is available at this site. Please update your bookmarks.
Thank you, and we apologize for the inconvenience.
Please send an email to SR-SRH.Webmaster@noaa.gov with any concerns.


Current Version
Previous Version:    01  02  03  04  05  06  07  08  09  10  11  12  13  14  15  16  17  18  19  20  21  22  23  24  25  26  27  28  29  30  
   31  32  33  34  35  36  37  38  39  40  41  42  43  44  45  46  47  48  49  50  51  52  53  54  
[Printable]
558
ASUS44 KOUN 231110
RWROK

WEATHER ROUNDUP FOR OKLAHOMA
NATIONAL WEATHER SERVICE NORMAN OK
600 AM CDT THU OCT 23 2014

NOTE: "FAIR" INDICATES FEW OR NO CLOUDS BELOW 12,000 FEET WITH NO
      SIGNIFICANT WEATHER AND/OR OBSTRUCTIONS TO VISIBILITY.

OKZ001>007-009>012-014-015-017-231200-
NORTHWEST OKLAHOMA AND THE PANHANDLE

CITY           SKY/WX    TMP DP  RH WIND       PRES   REMARKS
GAGE           CLEAR     58  57  97 S9        30.06S FOG
ENID/WOODRING    N/A     63  61  94 S3        30.08R
$$

OKZ016-021>023-033>039-044-045-231200-
SOUTHWEST OKLAHOMA

CITY           SKY/WX    TMP DP  RH WIND       PRES   REMARKS
LAWTON/REGL    MOCLDY    63  60  90 SE6       30.10S
LAWTON/FT SILL PTCLDY    62  60  93 S6        30.09S
FREDERICK      CLOUDY    63  61  93 SE6       30.06S
CLINTON        CLEAR     58  56  93 S5        30.10S FOG
HOBART         MOCLDY    60  59  96 S6        30.09F FOG
ALTUS AFB      CLOUDY    60  60 100 CALM      30.09S
$$

OKZ018>020-024>031-231200-
CENTRAL OKLAHOMA

CITY           SKY/WX    TMP DP  RH WIND       PRES   REMARKS
OKLAHOMA CITY  CLOUDY    62  56  80 S8        30.10S
OKC/WILEY POST CLOUDY    62  57  83 S12       30.10R
OKC/TINKER AFB MOCLDY    61  56  84 S12       30.11S
STILLWATER     CLOUDY    62  58  86 S13       30.09S
GUTHRIE        CLOUDY    62  58  86 S9        30.09S
$$

OKZ008-013-054>072-231200-
NORTHEAST OKLAHOMA

CITY           SKY/WX    TMP DP  RH WIND       PRES   REMARKS
TULSA          CLOUDY    61  59  93 SE6       30.11R
TULSA/JONES    CLOUDY    62  58  86 S3        30.12S
PONCA CITY     CLOUDY    63  61  93 S8        30.09R
BARTLESVILLE   LGT RAIN  60  60 100 S5        30.13R
MUSKOGEE       CLOUDY    58  52  80 SE6       30.15S
$$

OKZ032-040>043-046>053-073>077-231200-
SOUTH CENTRAL/SOUTHEAST OKLAHOMA

CITY           SKY/WX    TMP DP  RH WIND       PRES   REMARKS
ARDMORE/DWNTWN LGT RAIN  59  55  88 S3        30.13S
MCALESTER      CLOUDY    60  55  83 CALM      30.15R
$$





U.S. Dept. of Commerce
NOAA National Weather Service
1325 East West Highway
Silver Spring, MD 20910
E-mail: w-nws.webmaster@noaa.gov
Page last modified: May 16, 2007
NATIONAL WEATHER SERVICE: for Safety, for Work, for Fun - FOR LIFE